IT9LCP-2 Weather Reports


time (UTC)temp
C
wind
direction
speed
KPH
gust
KPH
rain 1hr
cm
rain 24hr
cm
rain mn
cm
humidity
%
barometer
mb
20260906090116 32 18 11.3 14.5 0.00 0.00 0.00 42 1019.7
20260906084116 32 18 9.7 14.5 0.00 0.00 0.00 40 1019.9
20260906083117 32 8 9.7 12.9 0.00 0.00 0.00 38 1019.7
20260906082116 31 18 11.3 14.5 0.00 0.00 0.00 39 1019.7
20260906081117 32 4 8.0 12.9 0.00 0.00 0.00 38 1019.7
20260906080117 32 356 9.7 12.9 0.00 0.00 0.00 36 1019.5
20260906074116 31 356 9.7 12.9 0.00 0.00 0.00 37 1019.5
20260906073116 31 8 8.0 11.3 0.00 0.00 0.00 37 1019.4
20260906072117 31 3 9.7 11.3 0.00 0.00 0.00 37 1019.3
20260906071117 31 3 9.7 12.9 0.00 0.00 0.00 37 1019.3
20260906070116 30 10 9.7 12.9 0.00 0.00 0.00 40 1019.2
20260906064117 32 5 9.7 11.3 0.00 0.00 0.00 35 1018.7
20260906063116 32 1 9.7 9.7 0.00 0.00 0.00 36 1018.8
20260906062116 31 0 8.0 9.7 0.00 0.00 0.00 37 1018.8
20260906060118 30 1 9.7 9.7 0.00 0.00 0.00 41 1018.8
20260906055116 28 1 8.0 9.7 0.00 0.00 0.00 45 1018.9
20260906054116 27 0 9.7 9.7 0.00 0.00 0.00 48 1018.8
20260906053117 26 0 8.0 11.3 0.00 0.00 0.00 50 1018.9
20260906052116 25 357 9.7 11.3 0.00 0.00 0.00 50 1019.0
20260906044116 23 0 9.7 14.5 0.00 0.00 0.00 52 1018.7
20260906043117 23 358 9.7 11.3 0.00 0.00 0.00 54 1018.7
20260906042116 23 0 8.0 9.7 0.00 0.00 0.00 53 1018.8
20260906041116 23 359 9.7 9.7 0.00 0.00 0.00 54 1018.5
20260906035116 23 0 9.7 9.7 0.00 0.00 0.00 52 1018.5
20260906034116 23 0 9.7 9.7 0.00 0.00 0.00 52 1018.3
20260906033116 25 0 9.7 11.3 0.00 0.00 0.00 49 1018.4
20260906032116 25 357 9.7 11.3 0.00 0.00 0.00 46 1018.2
20260906031117 25 1 9.7 11.3 0.00 0.00 0.00 46 1018.3
20260906030116 25 0 9.7 11.3 0.00 0.00 0.00 48 1018.5
20260906025117 25 0 9.7 14.5 0.00 0.00 0.00 47 1018.2
20260906024116 23 2 9.7 12.9 0.00 0.00 0.00 50 1018.4
20260906023117 23 357 8.0 9.7 0.00 0.00 0.00 57 1018.3
20260906022116 24 358 9.7 9.7 0.00 0.00 0.00 55 1018.3
20260906021116 25 357 9.7 11.3 0.00 0.00 0.00 53 1018.2
20260906014116 25 358 9.7 11.3 0.00 0.00 0.00 51 1018.4
20260906012116 24 0 9.7 9.7 0.00 0.00 0.00 55 1018.4
20260906011116 25 356 9.7 11.3 0.00 0.00 0.00 54 1018.6
20260906005116 24 358 9.7 9.7 0.00 0.00 0.00 58 1018.5
20260906002117 24 0 9.7 9.7 0.00 0.00 0.00 62 1018.5
20260906001116 24 356 9.7 11.3 0.00 0.00 0.00 63 1018.6
20260906000116 24 358 9.7 9.7 0.00 0.00 0.00 63 1018.6
20260905235116 24 357 9.7 9.7 0.00 0.00 0.00 62 1018.9
20260905234116 24 358 9.7 11.3 0.00 0.00 0.00 64 1019.1
20260905233116 24 353 9.7 9.7 0.00 0.00 0.00 64 1018.9
20260905231116 25 358 9.7 9.7 0.00 0.00 0.00 64 1019.1
20260905230116 25 0 8.0 9.7 0.00 0.00 0.00 64 1019.1
20260905225116 25 356 8.0 9.7 0.00 0.00 0.00 63 1019.4
20260905224118 25 0 8.0 11.3 0.00 0.00 0.00 62 1019.4
20260905223117 25 353 9.7 9.7 0.00 0.00 0.00 62 1019.2
20260905222116 26 358 8.0 9.7 0.00 0.00 0.00 61 1019.2
20260905221116 26 358 9.7 11.3 0.00 0.00 0.00 59 1019.2
20260905220115 26 355 9.7 11.3 0.00 0.00 0.00 61 1019.1
20260905215116 26 355 9.7 11.3 0.00 0.00 0.00 62 1019.2
20260905214116 26 355 9.7 9.7 0.00 0.00 0.00 61 1019.1
20260905213116 26 357 8.0 11.3 0.00 0.00 0.00 59 1019.0
20260905212116 27 354 9.7 11.3 0.00 0.00 0.00 57 1018.9
20260905211116 27 356 9.7 11.3 0.00 0.00 0.00 59 1019.0
20260905205115 26 1 9.7 12.9 0.00 0.00 0.00 71 1019.1
20260905204116 26 359 9.7 9.7 0.00 0.00 0.00 73 1018.9
20260905203115 26 354 9.7 9.7 0.00 0.00 0.00 74 1019.2
20260905202116 26 0 9.7 9.7 0.00 0.00 0.00 74 1019.2
20260905201116 26 357 8.0 9.7 0.00 0.00 0.00 75 1019.3
20260905200116 26 355 9.7 9.7 0.00 0.00 0.00 75 1019.4
20260905195115 26 358 9.7 9.7 0.00 0.00 0.00 75 1019.4
20260905194116 27 0 9.7 9.7 0.00 0.00 0.00 74 1019.4
20260905193115 27 357 9.7 9.7 0.00 0.00 0.00 73 1019.4
20260905190116 27 354 9.7 9.7 0.00 0.00 0.00 73 1018.8
20260905185116 27 1 8.0 9.7 0.00 0.00 0.00 72 1018.8
20260905184115 27 0 8.0 9.7 0.00 0.00 0.00 71 1018.9
20260905183116 28 1 9.7 9.7 0.00 0.00 0.00 70 1018.9
20260905182116 28 1 8.0 9.7 0.00 0.00 0.00 70 1018.5
20260905181115 28 2 8.0 9.7 0.00 0.00 0.00 69 1018.7
20260905175116 28 1 8.0 9.7 0.00 0.00 0.00 69 1018.6
20260905173116 28 1 8.0 9.7 0.00 0.00 0.00 69 1018.8
20260905172115 28 8 9.7 11.3 0.00 0.00 0.00 69 1018.6
20260905171116 29 8 9.7 11.3 0.00 0.00 0.00 68 1018.7
20260905170115 29 7 9.7 11.3 0.00 0.00 0.00 66 1018.8
20260905165116 30 8 9.7 11.3 0.00 0.00 0.00 64 1018.9
20260905164116 30 3 9.7 12.9 0.00 0.00 0.00 63 1018.9
20260905163116 30 14 9.7 11.3 0.00 0.00 0.00 63 1018.8
20260905162116 30 19 9.7 11.3 0.00 0.00 0.00 64 1018.7
20260905161116 30 10 9.7 11.3 0.00 0.00 0.00 63 1018.5
20260905160115 30 6 9.7 11.3 0.00 0.00 0.00 62 1018.5
20260905155115 30 6 8.0 12.9 0.00 0.00 0.00 62 1018.8
20260905154116 30 16 9.7 11.3 0.00 0.00 0.00 60 1018.6
20260905153115 31 15 9.7 12.9 0.00 0.00 0.00 61 1018.7
20260905151115 31 12 9.7 14.5 0.00 0.00 0.00 56 1018.6
20260905145116 31 9 9.7 14.5 0.00 0.00 0.00 59 1018.5
20260905144115 31 10 9.7 16.1 0.00 0.00 0.00 56 1018.5
20260905143116 31 7 11.3 14.5 0.00 0.00 0.00 49 1018.3
20260905142115 31 19 11.3 16.1 0.00 0.00 0.00 49 1018.6
20260905141115 31 20 9.7 16.1 0.00 0.00 0.00 49 1018.4
20260905140116 32 21 9.7 16.1 0.00 0.00 0.00 49 1018.5
20260905135116 32 17 11.3 16.1 0.00 0.00 0.00 48 1018.4
20260905134116 32 1 9.7 16.1 0.00 0.00 0.00 47 1018.5
20260905132115 32 16 11.3 14.5 0.00 0.00 0.00 47 1018.3
20260905131115 31 9 9.7 14.5 0.00 0.00 0.00 48 1018.6
20260905130116 32 28 11.3 16.1 0.00 0.00 0.00 49 1018.5
20260905125115 32 2 11.3 14.5 0.00 0.00 0.00 49 1018.8
20260905124116 31 7 11.3 14.5 0.00 0.00 0.00 45 1018.7
20260905123116 31 18 11.3 16.1 0.00 0.00 0.00 44 1018.9
20260905122115 31 9 11.3 16.1 0.00 0.00 0.00 44 1019.0
20260905121116 31 19 11.3 14.5 0.00 0.00 0.00 43 1019.1
20260905120115 32 6 9.7 12.9 0.00 0.00 0.00 45 1019.1
20260905115115 32 25 11.3 16.1 0.00 0.00 0.00 46 1018.8
20260905114115 32 3 9.7 14.5 0.00 0.00 0.00 47 1019.0
20260905113115 31 20 11.3 16.1 0.00 0.00 0.00 50 1018.9
20260905112115 31 30 11.3 16.1 0.00 0.00 0.00 51 1019.2
20260905111115 31 11 9.7 14.5 0.00 0.00 0.00 51 1019.4
20260905110115 31 21 11.3 16.1 0.00 0.00 0.00 52 1019.3
20260905105116 31 17 8.0 19.3 0.00 0.00 0.00 55 1019.3
20260905103115 30 15 9.7 14.5 0.00 0.00 0.00 58 1019.4
20260905102115 30 2 9.7 14.5 0.00 0.00 0.00 49 1019.4
20260905101115 30 19 9.7 14.5 0.00 0.00 0.00 56 1019.5
20260905100115 30 15 11.3 16.1 0.00 0.00 0.00 57 1019.5
20260905095116 30 24 9.7 14.5 0.00 0.00 0.00 58 1019.4
20260905094115 30 29 11.3 16.1 0.00 0.00 0.00 58 1019.7
20260905092115 30 20 9.7 14.5 0.00 0.00 0.00 57 1019.5
20260905091115 30 20 11.3 14.5 0.00 0.00 0.00 57 1019.7